[ hide orbit diagram ]
For accurate long-term ephemerides, please instead use our Horizons system.This orbit viewer was implemented using two-body methods, and hence should not be used for determining accurate long-term trajectories (over several years or decades) or planetary encounter circumstances.
Orbital Elements at Epoch 2459200.5 (2020-Dec-17.0) TDB
Reference: JPL 27 (heliocentric ecliptic J2000)
Element | Value | Uncertainty (1-sigma) | Units |
e | .226885588941414 | 3.3872e-08 | |
a | 3.961997273998692 | 3.8528e-08 | au |
q | 3.063077189103222 | 1.5138e-07 | au |
i | 1.743247311362262 | 6.2392e-06 | deg |
node | 346.5489192751735 | 0.00011739 | deg |
peri | 93.49859746859552 | 0.00011851 | deg |
M | 312.6257571962164 | 1.6065e-05 | deg |
tp | 2459579.561316209578 (2021-Dec-31.06131621) | 0.00013257 | TDB |
period | 2880.511977798813 7.89 | 4.2017e-05 1.15e-07 | d yr |
n | .1249777826909435 | 1.823e-09 | deg/d |
Q | 4.860917358894163 | 4.727e-08 | au |
|
| | Orbit Determination Parameters
Additional Information
|
[ show covariance matrix ]
Physical Parameter Table
Parameter |
Symbol |
Value |
Units |
Sigma |
Reference |
Notes |
absolute magnitude |
H |
14.01 |
|
n/a |
E2021B10 |
|
|
15068 Wiegert | Discovered 1999 Jan. 13 by Spacewatch at Kitt Peak. |
Paul Wiegert (b. 1967) studied at Simon Fraser University, University of Toronto, York University and Queen's University. He helped identify (3753) Cruithne as the first minor planet known to be co-orbital with the earth. The name was suggested by R. Jedicke and P. Jedicke. |
NOTE: some special characters may not display properly (any characters within {} are an attempt to place the proper accent above a character) |
Reference: 20050523/MPCPages.arc | Last Updated: 2005-07-21 |
|
[ show close-approach data ]
Alternate Designations
1999 AJ20 = 1996 RK31 = 1997 WJ33 |
|
|